Location: Grust
(42.8833°N, 0.0333°W)
Time: 20:10:12
(UTC+00:00)

Meteor 2-21 Rocket - Pass Details

Date: 25 October 2020
Orbit: 935 x 968 km, 82.5° (Epoch: 22 November)

Event Time Altitude Azimuth Distance (km) Brightness Sun altitude
Rises 17:46:24 0° 353° (N) 3,658 7.5 -8.8°
Reaches altitude 10° 17:48:56 10° 356° (N) 2,704 6.8 -9.3°
Maximum altitude 17:55:07 71° 80° (E) 1,010 4.4 -10.4°
Drops below altitude 10° 18:01:12 10° 164° (SSE) 2,663 6.7 -11.5°
Sets 18:03:41 0° 167° (SSE) 3,600 7.4 -12.0°
